FW1340 Weather Reports


Display with metric or nautical units.
time (UTC)temp
F
wind
direction
speed
MPH
gust
MPH
rain 1hr
in
rain 24hr
in
rain mn
in
humidity
%
barometer
mb
20260831014550 86 294 0.0 0.0 0.00 0.00 0.00 37 1009.5
20260831013045 87 276 0.0 0.0 0.00 0.00 0.00 35 1009.4
20260831011544 88 265 0.0 0.0 0.00 0.00 0.00 34 1009.5
20260831010043 88 281 0.0 0.0 0.00 0.00 0.00 33 1009.6
20260831004546 88 273 0.0 0.0 0.00 0.00 0.00 33 1009.6
20260831003041 88 268 0.0 0.0 0.00 0.00 0.00 32 1009.6
20260831001541 89 266 0.0 0.0 0.00 0.00 0.00 32 1009.7
20260831000053 89 256 0.0 0.0 0.00 0.00 0.00 33 1009.8
20260830234546 89 265 0.0 0.0 0.00 0.00 0.00 34 1009.9
20260830233053 89 257 0.0 0.0 0.00 0.00 0.00 36 1010.1
20260830231535 89 301 0.0 0.0 0.00 0.00 0.00 36 1010.1
20260830230032 88 252 0.0 0.0 0.00 0.00 0.00 34 1010.3
20260830224529 88 264 0.0 0.0 0.00 0.00 0.00 34 1010.5
20260830223028 88 264 0.0 0.0 0.00 0.00 0.00 36 1010.7
20260830221526 88 217 0.0 0.0 0.00 0.00 0.00 37 1010.8
20260830220030 87 302 0.0 0.0 0.00 0.00 0.00 39 1011.1
20260830214519 87 267 0.0 0.0 0.00 0.00 0.00 39 1011.4
20260830213021 86 293 0.0 0.0 0.00 0.00 0.00 41 1011.5
20260830211513 85 248 0.0 0.0 0.00 0.00 0.00 42 1011.8
20260830210019 84 265 0.0 0.0 0.00 0.00 0.00 43 1011.9
20260830204506 84 275 0.0 0.0 0.00 0.00 0.00 45 1012.0
20260830203002 82 237 0.0 0.0 0.00 0.00 0.00 46 1012.1
20260830201618 81 262 0.0 0.0 0.00 0.00 0.00 48 1012.2
20260830194551 79 236 0.0 0.0 0.00 0.00 0.00 51 1012.7
20260830193047 78 294 0.0 0.0 0.00 0.00 0.00 52 1012.8
20260830191615 77 221 0.0 0.0 0.00 0.00 0.00 55 1012.9
20260830190053 76 225 0.0 0.0 0.00 0.00 0.00 56 1013.2
20260830184538 75 337 0.0 0.0 0.00 0.00 0.00 58 1013.3
20260830183033 74 286 0.0 0.0 0.00 0.00 0.00 58 1013.4
20260830181530 73 309 0.0 0.0 0.00 0.00 0.00 60 1013.5
20260830180035 72 279 0.0 0.0 0.00 0.00 0.00 62 1013.6
20260830174528 71 227 0.0 0.0 0.00 0.00 0.00 63 1013.6
20260830173019 71 255 0.0 0.0 0.00 0.00 0.00 62 1013.6
20260830171515 70 277 0.0 0.0 0.00 0.00 0.00 64 1013.6
20260830170012 69 319 0.0 0.0 0.00 0.00 0.00 66 1013.5
20260830164510 68 305 0.0 0.0 0.00 0.00 0.00 68 1013.6
20260830163018 67 306 0.0 0.0 0.00 0.00 0.00 70 1013.5
20260830161501 65 268 0.0 0.0 0.00 0.00 0.00 71 1013.5
20260830160100 65 267 0.0 0.0 0.00 0.00 0.00 70 1013.6
20260830154602 64 271 0.0 0.0 0.00 0.00 0.00 71 1013.8
20260830153049 63 288 0.0 0.0 0.00 0.00 0.00 72 1013.6
20260830151545 61 315 0.0 0.0 0.00 0.00 0.00 76 1013.6
20260830150044 58 42 0.0 0.0 0.00 0.00 0.00 82 1013.5
20260830144543 56 344 0.0 0.0 0.00 0.00 0.00 84 1013.4
20260830143034 54 325 0.0 0.0 0.00 0.00 0.00 86 1013.4
20260830141530 53 46 0.0 0.0 0.00 0.00 0.00 87 1013.2
20260830140026 52 46 0.0 0.0 0.00 0.00 0.00 87 1012.8
20260830134523 52 46 0.0 0.0 0.00 0.00 0.00 87 1012.6
20260830133022 51 46 0.0 0.0 0.00 0.00 0.00 86 1012.6
20260830131539 52 84 0.0 0.0 0.00 0.00 0.00 85 1012.5
20260830130018 52 126 0.0 0.0 0.00 0.00 0.00 85 1012.4
20260830124515 53 126 0.0 0.0 0.00 0.00 0.00 85 1012.4
20260830123014 53 99 0.0 0.0 0.00 0.00 0.00 84 1012.4
20260830121512 53 99 0.0 0.0 0.00 0.00 0.00 84 1012.1
20260830120012 53 65 0.0 0.0 0.00 0.00 0.00 85 1012.2
20260830114510 53 92 0.0 0.0 0.00 0.00 0.00 84 1012.2
20260830113013 53 103 0.0 0.0 0.00 0.00 0.00 82 1012.1
20260830111506 54 103 0.0 0.0 0.00 0.00 0.00 81 1012.0
20260830110004 55 126 0.0 0.0 0.00 0.00 0.00 81 1012.0
20260830104502 55 132 0.0 0.0 0.00 0.00 0.00 81 1012.0
20260830103100 55 118 0.0 0.0 0.00 0.00 0.00 79 1012.0
20260830101606 55 102 0.0 0.0 0.00 0.00 0.00 79 1012.0
20260830100056 56 261 0.0 0.0 0.00 0.00 0.00 77 1012.1
20260830094554 57 226 0.0 0.0 0.00 0.00 0.00 79 1012.1
20260830093052 57 226 0.0 0.0 0.00 0.00 0.00 78 1012.0
20260830091551 57 226 0.0 0.0 0.00 0.00 0.00 78 1012.1
20260830090052 57 79 0.0 0.0 0.00 0.00 0.00 78 1012.2
20260830084548 57 78 0.0 0.0 0.00 0.00 0.00 76 1012.1
20260830083052 58 123 0.0 0.0 0.00 0.00 0.00 75 1012.2
20260830081542 59 115 0.0 0.0 0.00 0.00 0.00 70 1012.2
20260830080043 60 15 0.0 0.0 0.00 0.00 0.00 75 1012.2
20260830074540 60 45 0.0 0.0 0.00 0.00 0.00 74 1012.2
20260830073037 60 45 0.0 0.0 0.00 0.00 0.00 75 1012.2
20260830071534 61 55 0.0 0.0 0.00 0.00 0.00 72 1012.3
20260830070050 61 59 0.0 0.0 0.00 0.00 0.00 73 1012.2
20260830064532 61 243 0.0 0.0 0.00 0.00 0.00 72 1012.2
20260830063034 62 130 0.0 0.0 0.00 0.00 0.00 68 1012.2
20260830061532 63 236 0.0 0.0 0.00 0.00 0.00 69 1012.1
20260830060044 64 176 0.0 0.0 0.00 0.00 0.00 65 1012.0
20260830054530 65 138 0.0 0.0 0.00 0.00 0.00 64 1012.0
20260830053029 66 117 0.0 0.0 0.00 0.00 0.00 61 1012.1
20260830051535 66 152 0.0 0.0 0.00 0.00 0.00 63 1012.1
20260830050028 67 88 0.0 0.0 0.00 0.00 0.00 61 1012.2
20260830044538 68 238 0.0 0.0 0.00 0.00 0.00 61 1012.0
20260830043027 68 64 0.0 0.0 0.00 0.00 0.00 59 1012.0
20260830041546 70 173 0.0 0.0 0.00 0.00 0.00 57 1011.9
20260830040030 71 229 0.0 0.0 0.00 0.00 0.00 56 1011.6
20260830034526 72 263 0.0 0.0 0.00 0.00 0.00 55 1011.3
20260830033030 73 302 0.0 0.0 0.00 0.00 0.00 54 1010.9
20260830031530 74 244 0.0 0.0 0.00 0.00 0.00 53 1010.7
20260830030028 76 232 0.0 0.0 0.00 0.00 0.00 49 1010.7
20260830024523 77 270 0.0 0.0 0.00 0.00 0.00 46 1010.9
20260830023024 79 242 0.0 0.0 0.00 0.00 0.00 42 1010.8
20260830021525 80 256 0.0 0.0 0.00 0.00 0.00 38 1010.7
20260830020032 82 253 0.0 0.0 0.00 0.00 0.00 35 1010.7